Location: Artiguedieu
(43.5000°N, 0.5454°E)
Time: 09:21:37
(UTC+00:00)

Vanguard 1 Rocket - Pass Details

Date: 06 August 2021
Orbit: 650 x 4226 km, 34.3° (Epoch: 24 September)

Event Time Altitude Azimuth Distance (km) Brightness Sun altitude
Rises 10:26:59 0° 254° (WSW) 8,254 12.1 56.2°
Reaches altitude 10° 10:33:17 10° 252° (WSW) 6,919 11.8 56.9°
Maximum altitude 10:53:26 59° 181° (S) 2,781 11.7 59.2°
Drops below altitude 10° 11:03:58 10° 105° (ESE) 3,851 11.1 60.2°
Sets 11:06:25 0° 101° (E) 4,513 11.2 60.4°
